Flag for Tuvalu Weather past 2 weeks in Funafuti, Tuvalu

Now
75 °F

Thunderstorms. Mostly cloudy.


Feels Like: 73 °F
Forecast: 79 / 82 °F
Wind: No wind

Location: Funafuti

Current Time: Jan 27, 2015 at 6:29:33 PM

Latest Report: Jan 27, 2015 at 6:00 PM


Visibility: N/A

Pressure: 29.68 "Hg

Humidity: 100%

Dew point: 75 °F

Location of FunafutiLocation

Historic Weather in Funafuti — Graph

°F

Funafuti temperature yesterday

Maximum temperature yesterday: 86 °F (at 12:00 AM)
Minimum temperature yesterday: 77 °F (at 11:00 PM)
Average temperature yesterday: 83 °F

Past Weeks' High & Low Weather Summary

 TemperatureHumidityPressure
High91 °F (Jan 12, 5:00 PM)100% (Jan 26, 11:00 PM)29.92 "Hg (Jan 26, 11:00 PM)
Low75 °F (Jan 27, 11:00 AM)62% (Jan 19, 4:00 PM)29.59 "Hg (Jan 26, 1:00 PM)
Average84 °F81%29.77 "Hg
* Reported Jan 12 5:00 PM — Jan 27 5:00 PM, Funafuti, Weather by CustomWeather, © 2014

Note: Actual official high and low records may vary slightly from our data, if they occured in-between our weather recording intervals... More about our weather records

Advertising

Funafuti weather history for previous 24 hours

 ConditionsComfort  
Time TempWeatherWind HumidityBarometerVisibility
5:00 PM
Jan 27
77 °FRain showers. Mostly cloudy.7 mph94%29.65 "HgN/A
4:00 PM77 °FRain. Mostly cloudy.1 mph100%29.65 "HgN/A
3:00 PM79 °FSprinkles. More clouds than sun.1 mph94%29.65 "HgN/A
2:00 PM77 °FSprinkles. More clouds than sun.3 mph100%29.68 "HgN/A
1:00 PM77 °FSprinkles. More clouds than sun.9 mph94%29.68 "HgN/A
12:00 PM75 °FThunderstorms. More clouds than sun.8 mph94%29.71 "HgN/A
11:00 AM75 °FRain. Mostly cloudy.15 mph94%29.71 "HgN/A
10:00 AM77 °FRain. More clouds than sun.2 mph94%29.71 "HgN/A
9:00 AM77 °FSprinkles. More clouds than sun.2 mph94%29.71 "HgN/A
8:00 AM77 °FRain. Mostly cloudy.22 mph94%29.71 "HgN/A
7:00 AM77 °FSprinkles. More clouds than sun.21 mph100%29.68 "HgN/A
6:00 AM79 °FSprinkles. More clouds than sun.24 mph94%29.68 "HgN/A
5:00 AM79 °FRain. Mostly cloudy.30 mph89%29.62 "HgN/A
4:00 AM81 °FScattered showers. Mostly cloudy.26 mph89%29.59 "HgN/A
3:00 AM81 °FSprinkles. Mostly cloudy.28 mph89%29.59 "HgN/A
2:00 AM81 °FSprinkles. Mostly cloudy.23 mph94%29.62 "HgN/A
1:00 AM82 °FSprinkles. Mostly cloudy.21 mph89%29.65 "HgN/A
12:00 AM81 °FSprinkles. Mostly cloudy.22 mph89%29.65 "HgN/A
11:00 PM
Jan 26
77 °FRain. Mostly cloudy.18 mph100%29.68 "HgN/A
10:00 PM81 °FScattered showers. Mostly cloudy.18 mph89%29.65 "HgN/A
9:00 PM82 °FScattered showers. Mostly cloudy.17 mph84%29.68 "HgN/A
8:00 PM81 °FScattered showers. Mostly cloudy.22 mph94%29.62 "HgN/A
7:00 PM82 °FScattered showers. Mostly cloudy.13 mph89%29.62 "HgN/A
6:00 PM81 °FScattered showers. More clouds than sun.No wind94%29.62 "HgN/A
Weather by CustomWeather, © 2014

See weather overviewHow to use our weather pages